• In Netherlands
  • List of Countries
  • For 7 days
  • Water Temperature
  • Satellite Maps
  • Weather Map
  • Weather Widgets
  • user-avatar
    Login

    Hourly Weather Balchik

    Today, 19 January, Friday

    Time Temperature Precipitation Wind Pressure Humidity
    00:00 -4°C° 0 mm 7 mps 734 mmHg 75%
    01:00 -6°C° 0 mm 7 mps 734 mmHg 76%
    02:00 -5°C° 0 mm 6 mps 734 mmHg 77%
    03:00 -5°C° 0 mm 6 mps 734 mmHg 78%
    04:00 -5°C° 0 mm 5 mps 734 mmHg 80%
    05:00 -6°C° 0 mm 5 mps 734 mmHg 81%
    06:00 -4°C° 0 mm 4 mps 734 mmHg 78%
    07:00 -4°C° 0 mm 4 mps 734 mmHg 76%
    08:00 -3°C° 0 mm 4 mps 734 mmHg 70%
    09:00 -1°C° 0 mm 4 mps 735 mmHg 66%
    10:00 0°C° 0 mm 4 mps 735 mmHg 63%
    11:00 +3°C° 0 mm 4 mps 735 mmHg 59%
    12:00 +4°C° 0 mm 4 mps 735 mmHg 59%
    13:00 +5°C° 0 mm 4 mps 735 mmHg 58%
    14:00 +6°C° 0 mm 4 mps 735 mmHg 57%
    15:00 +5°C° 0 mm 4 mps 736 mmHg 59%
    16:00 +4°C° 0 mm 4 mps 736 mmHg 62%
    17:00 +3°C° 0 mm 3 mps 736 mmHg 64%
    18:00 +3°C° 0 mm 3 mps 736 mmHg 64%
    19:00 +2°C° 0 mm 3 mps 736 mmHg 65%
    20:00 +2°C° 0 mm 3 mps 736 mmHg 65%
    21:00 +3°C° 0 mm 2 mps 736 mmHg 65%
    22:00 +3°C° 0 mm 2 mps 736 mmHg 64%
    23:00 +3°C° 0 mm 2 mps 736 mmHg 64%

    Tomorrow, 20 January, Saturday

    Time Temperature Precipitation Wind Pressure Humidity
    00:00 +3°C° 0 mm 2 mps 736 mmHg 66%
    01:00 +2°C° 0 mm 2 mps 736 mmHg 68%
    02:00 +2°C° 0 mm 2 mps 736 mmHg 69%
    03:00 +1°C° 0 mm 3 mps 736 mmHg 73%
    04:00 +1°C° 0 mm 3 mps 736 mmHg 77%
    05:00 +1°C° 0 mm 3 mps 735 mmHg 81%
    06:00 +1°C° 0 mm 3 mps 735 mmHg 80%
    07:00 0°C° 0 mm 3 mps 735 mmHg 80%
    08:00 +1°C° 0 mm 2 mps 735 mmHg 79%
    09:00 +3°C° 0 mm 2 mps 735 mmHg 75%
    10:00 +4°C° 0 mm 2 mps 735 mmHg 71%
    11:00 +5°C° 0 mm 2 mps 735 mmHg 67%
    12:00 +5°C° 0 mm 2 mps 735 mmHg 67%
    13:00 +6°C° 0 mm 2 mps 734 mmHg 67%
    14:00 +6°C° 0 mm 2 mps 734 mmHg 67%
    15:00 +6°C° 0 mm 2 mps 734 mmHg 72%
    16:00 +5°C° 0 mm 2 mps 734 mmHg 77%
    17:00 +4°C° 0 mm 2 mps 733 mmHg 82%
    18:00 +4°C° 0.1 mm 2 mps 733 mmHg 85%
    19:00 +4°C° 0.1 mm 2 mps 733 mmHg 87%
    20:00 +3°C° 0.1 mm 2 mps 733 mmHg 89%
    21:00 +2°C° 0.4 mm 3 mps 733 mmHg 88%
    22:00 +1°C° 0.4 mm 3 mps 733 mmHg 88%
    23:00 0°C° 0.4 mm 4 mps 733 mmHg 87%

    Day after tomorrow, 21 January, Sunday

    Time Temperature Precipitation Wind Pressure Humidity
    00:00 0°C° 0.3 mm 4 mps 734 mmHg 89%
    01:00 0°C° 0.3 mm 5 mps 734 mmHg 90%
    02:00 -1°C° 0.3 mm 5 mps 734 mmHg 92%
    03:00 -1°C° 0 mm 4 mps 735 mmHg 93%
    04:00 -1°C° 0 mm 4 mps 735 mmHg 93%
    05:00 -1°C° 0 mm 3 mps 735 mmHg 93%
    06:00 -1°C° 0 mm 3 mps 736 mmHg 93%
    07:00 -1°C° 0 mm 2 mps 736 mmHg 93%
    08:00 -1°C° 0 mm 2 mps 736 mmHg 93%
    09:00 -1°C° 0 mm 2 mps 736 mmHg 91%
    10:00 +1°C° 0 mm 2 mps 736 mmHg 88%
    11:00 +2°C° 0 mm 2 mps 736 mmHg 86%
    12:00 +3°C° 0 mm 2 mps 736 mmHg 84%
    13:00 +2°C° 0 mm 3 mps 736 mmHg 83%
    14:00 +3°C° 0 mm 3 mps 735 mmHg 81%
    15:00 +2°C° 0 mm 3 mps 735 mmHg 83%
    16:00 +2°C° 0 mm 3 mps 734 mmHg 85%
    17:00 +2°C° 0 mm 3 mps 734 mmHg 87%
    18:00 +1°C° 0 mm 3 mps 734 mmHg 89%
    19:00 +1°C° 0 mm 3 mps 734 mmHg 91%
    20:00 +1°C° 0 mm 3 mps 733 mmHg 92%
    21:00 +2°C° 0.1 mm 2 mps 733 mmHg 93%
    22:00 +2°C° 0.1 mm 2 mps 733 mmHg 94%
    23:00 +2°C° 0.1 mm 2 mps 733 mmHg 95%

    22 January, Monday

    Time Temperature Precipitation Wind Pressure Humidity
    00:00 +2°C° 0.1 mm 2 mps 733 mmHg 95%
    01:00 +2°C° 0.1 mm 2 mps 732 mmHg 95%
    02:00 +2°C° 0.1 mm 2 mps 732 mmHg 96%
    03:00 +1°C° 0.3 mm 3 mps 732 mmHg 94%
    04:00 0°C° 0.3 mm 4 mps 732 mmHg 93%
    05:00 0°C° 0.3 mm 5 mps 732 mmHg 92%
    06:00 -1°C° 0.3 mm 6 mps 732 mmHg 90%
    07:00 -2°C° 0.3 mm 6 mps 732 mmHg 88%
    08:00 -2°C° 0.3 mm 7 mps 732 mmHg 87%
    09:00 -2°C° 0.3 mm 7 mps 732 mmHg 86%
    10:00 -2°C° 0.3 mm 7 mps 733 mmHg 85%
    11:00 -2°C° 0.3 mm 7 mps 733 mmHg 84%
    12:00 -2°C° 0.9 mm 7 mps 733 mmHg 87%
    13:00 -2°C° 0.9 mm 8 mps 733 mmHg 89%
    14:00 -2°C° 0.9 mm 8 mps 734 mmHg 91%
    15:00 -4°C° 0.6 mm 8 mps 735 mmHg 91%
    16:00 -4°C° 0.6 mm 8 mps 735 mmHg 90%
    17:00 -5°C° 0.6 mm 8 mps 736 mmHg 90%
    18:00 -6°C° 0 mm 7 mps 737 mmHg 90%
    19:00 -6°C° 0 mm 7 mps 738 mmHg 90%
    20:00 -6°C° 0 mm 6 mps 739 mmHg 89%
    21:00 -8°C° 0 mm 6 mps 739 mmHg 89%
    22:00 -7°C° 0 mm 5 mps 740 mmHg 89%
    23:00 -7°C° 0 mm 5 mps 741 mmHg 89%

    23 January, Tuesday

    Time Temperature Precipitation Wind Pressure Humidity
    00:00 -7°C° 0 mm 5 mps 741 mmHg 89%
    01:00 -8°C° 0 mm 5 mps 741 mmHg 90%
    02:00 -8°C° 0 mm 5 mps 742 mmHg 90%
    03:00 -8°C° 0 mm 5 mps 742 mmHg 90%
    04:00 -8°C° 0 mm 5 mps 742 mmHg 89%
    05:00 -8°C° 0 mm 5 mps 743 mmHg 89%
    06:00 -8°C° 0 mm 5 mps 743 mmHg 88%
    07:00 -8°C° 0 mm 4 mps 744 mmHg 87%
    08:00 -8°C° 0 mm 4 mps 744 mmHg 85%
    09:00 -7°C° 0 mm 4 mps 744 mmHg 82%
    10:00 -5°C° 0 mm 4 mps 745 mmHg 78%
    11:00 -4°C° 0 mm 4 mps 745 mmHg 74%
    12:00 -4°C° 0 mm 4 mps 745 mmHg 74%
    13:00 -3°C° 0 mm 4 mps 745 mmHg 73%
    14:00 -3°C° 0 mm 4 mps 745 mmHg 73%
    15:00 -2°C° 0 mm 3 mps 746 mmHg 76%
    16:00 -4°C° 0 mm 3 mps 746 mmHg 80%
    17:00 -5°C° 0 mm 3 mps 746 mmHg 83%
    18:00 -5°C° 0 mm 3 mps 747 mmHg 84%
    19:00 -6°C° 0 mm 3 mps 747 mmHg 84%
    20:00 -6°C° 0 mm 3 mps 748 mmHg 85%
    21:00 -6°C° 0 mm 3 mps 748 mmHg 85%
    22:00 -7°C° 0 mm 3 mps 748 mmHg 85%
    23:00 -7°C° 0 mm 3 mps 749 mmHg 85%

    24 January, Wednesday

    Time Temperature Precipitation Wind Pressure Humidity
    00:00 -7°C° 0 mm 3 mps 749 mmHg 84%
    01:00 -7°C° 0 mm 3 mps 749 mmHg 84%
    02:00 -7°C° 0 mm 3 mps 749 mmHg 84%
    03:00 -8°C° 0 mm 3 mps 750 mmHg 83%
    04:00 -8°C° 0 mm 3 mps 750 mmHg 82%
    05:00 -8°C° 0 mm 3 mps 750 mmHg 81%
    06:00 -7°C° 0 mm 2 mps 750 mmHg 80%
    07:00 -7°C° 0 mm 2 mps 751 mmHg 79%
    08:00 -7°C° 0 mm 2 mps 751 mmHg 78%
    09:00 -6°C° 0 mm 2 mps 751 mmHg 74%
    10:00 -5°C° 0 mm 2 mps 752 mmHg 70%
    11:00 -4°C° 0 mm 2 mps 752 mmHg 66%
    12:00 -3°C° 0 mm 2 mps 752 mmHg 67%
    13:00 -3°C° 0 mm 2 mps 751 mmHg 69%
    14:00 -2°C° 0 mm 2 mps 751 mmHg 71%
    15:00 -3°C° 0 mm 2 mps 751 mmHg 75%
    16:00 -3°C° 0 mm 2 mps 751 mmHg 80%
    17:00 -4°C° 0 mm 2 mps 751 mmHg 85%
    18:00 -4°C° 0 mm 2 mps 751 mmHg 86%
    19:00 -2°C° 0 mm 1 mps 751 mmHg 87%
    20:00 -2°C° 0 mm 1 mps 752 mmHg 88%
    21:00 -2°C° 0 mm 1 mps 752 mmHg 87%
    22:00 -2°C° 0 mm 1 mps 752 mmHg 87%
    23:00 -2°C° 0 mm 1 mps 752 mmHg 86%
    Show more